This is the latest recevied weather packets stored in our database for station/object KD7CIH. If no packets are shown the sender has not sent any weather packets the latest 10 day(s).
| Time | Temp. | Humidity | Pressure | Rain* | Wind** | Luminosity | Snow |
|---|---|---|---|---|---|---|---|
| 1788098602 | 13.33° C | 77% | 1016 hPa | 0 mm | - | - | - |
| 1788098296 | 13.33° C | 76% | 1016 hPa | 0 mm | - | - | - |
| 1788097988 | 13.33° C | 78% | 1015.8 hPa | 0 mm | - | - | - |
| 1788097686 | 13.33° C | 78% | 1015.8 hPa | 0 mm | - | - | - |
| 1788097385 | 13.33° C | 79% | 1015.8 hPa | 0 mm | - | - | - |
| 1788097213 | 13.33° C | 79% | 1015.3 hPa | 0 mm | - | - | - |
| 1788096914 | 12.78° C | 78% | 1014.8 hPa | 0 mm | - | - | - |
| 1788096486 | 12.78° C | 77% | 1014.8 hPa | 0 mm | - | - | - |
| 1788096186 | 12.78° C | 77% | 1014.8 hPa | 0 mm | - | - | - |
| 1788095884 | 12.78° C | 77% | 1014.8 hPa | 0 mm | - | - | - |
| 1788095585 | 12.78° C | 76% | 1014.8 hPa | 0 mm | - | - | - |
| 1788095288 | 13.33° C | 77% | 1015.2 hPa | 0 mm | - | - | - |
| 1788094985 | 12.78° C | 78% | 1015.3 hPa | 0 mm | - | - | - |
| 1788094685 | 12.78° C | 77% | 1014.9 hPa | 0 mm | - | - | - |
| 1788094385 | 13.33° C | 78% | 1014.9 hPa | 0 mm | - | - | - |
| 1788094087 | 13.33° C | 77% | 1014.5 hPa | 0 mm | - | - | - |
| 1788093787 | 13.33° C | 76% | 1014.3 hPa | 0 mm | - | - | - |
| 1788093487 | 13.33° C | 73% | 1014.3 hPa | 0 mm | - | - | - |
| 1788093187 | 13.33° C | 72% | 1014.6 hPa | 0 mm | - | - | - |
| 1788092886 | 13.89° C | 71% | 1014.3 hPa | 0 mm | - | - | - |
| 1788092578 | 13.89° C | 70% | 1014.3 hPa | 0 mm | - | - | - |
| 1788092272 | 13.89° C | 69% | 1014.5 hPa | 0 mm | - | - | - |
| 1788091967 | 14.44° C | 68% | 1014.6 hPa | 0 mm | - | - | - |
| 1788091661 | 14.44° C | 68% | 1014.8 hPa | 0 mm | - | - | - |
| 1788091354 | 13.33° C | 69% | 1014.9 hPa | 0 mm | - | - | - |
* Rain latest hour (hover to see other rain measurements)
** Current wind speed in m/s (hover to see current wind gust speed)